De Soto, IL

5:39 PM CST on February 20, 2017 (GMT -0600)
Southern Illinois

Weather History for KMDH - May, 2012

Change the Weather History Date:

Saturday, May 5, 2012

  Actual Average Record
Temperature  
Mean Temperature 78 °F -  
Max Temperature 89 °F 73 °F 93 °F (1952)
Min Temperature 69 °F 48 °F 35 °F (1910)
Cooling Degree Days 13    
Growing Degree Days 28 (Base 50)    
Moisture  
Dew Point 68 °F    
Average Humidity 76    
Maximum Humidity 90    
Minimum Humidity 59    
Precipitation  
Precipitation 0.00 in - - ()
Sea Level Pressure  
Sea Level Pressure 29.90 in    
Wind  
Wind Speed 6 mph (SSE)    
Max Wind Speed 15 mph    
Max Gust Speed 18 mph    
Visibility 10 miles    
Events Thunderstorm    
Averages and records for this station are not official NWS values.
T = Trace of Precipitation, MM = Missing Value Source: NWS Daily Summary

Daily Weather History Graph

Daily Weather History Graph

Search for Another Location

Airport or City:

Trip Planner

Search our weather history database for the weather conditions in past years. The results will help you decide how hot, cold, wet, or windy it might be!

Date:

Astronomy

May. 05, 2012 Rise Set
Actual Time 5:56 AM CDT 7:51 PM CDT
Civil Twilight 5:27 AM CDT 8:20 PM CDT
Nautical Twilight 4:52 AM CDT 8:55 PM CDT
Astronomical Twilight 4:15 AM CDT 9:32 PM CDT
Moon 7:43 PM CDT (5/5) 5:18 AM CDT (5/5)
Length of Visible Light 14h 52m
Length of Day
13h 55m
Full, 100% of the Moon is Illuminated
May 5
Full
May 5
Full
May 12
Last Quarter
May 20
New
May 28
First Quarter

Hourly Weather History & Observations

Time (CDT) Temp. Heat Index Dew Point Humidity Pressure Visibility Wind Dir Wind Speed Gust Speed Precip Events Conditions
12:52 AM 72.0 °F - 68.0 °F 87% 29.87 in 10.0 mi South 3.5 mph - N/A   Clear
1:52 AM 71.1 °F - 68.0 °F 90% 29.88 in 9.0 mi South 5.8 mph - N/A   Partly Cloudy
2:52 AM 72.0 °F - 68.0 °F 87% 29.88 in 9.0 mi East 4.6 mph - N/A   Partly Cloudy
3:52 AM 73.0 °F - 68.0 °F 84% 29.90 in 10.0 mi NE 10.4 mph - N/A   Overcast
4:52 AM 71.1 °F - 64.0 °F 78% 29.92 in 10.0 mi SE 5.8 mph - N/A   Overcast
5:49 AM 69.8 °F - 62.6 °F 78% 29.94 in 10.0 mi ESE 9.2 mph - N/A Thunderstorm Mostly Cloudy
5:52 AM 69.1 °F - 63.0 °F 81% 29.93 in 10.0 mi SE 10.4 mph - N/A Thunderstorm Mostly Cloudy
6:11 AM 69.8 °F - 62.6 °F 78% 29.94 in 10.0 mi SE 4.6 mph - N/A   Scattered Clouds
6:52 AM 69.1 °F - 62.1 °F 78% 29.91 in 10.0 mi South 5.8 mph - N/A   Clear
7:52 AM 71.1 °F - 64.0 °F 78% 29.93 in 10.0 mi South 6.9 mph - N/A   Clear
8:52 AM 73.9 °F - 66.0 °F 76% 29.93 in 10.0 mi South 10.4 mph - N/A   Clear
9:52 AM 78.1 °F - 69.1 °F 74% 29.93 in 10.0 mi South 15.0 mph 18.4 mph N/A   Clear
10:52 AM 81.0 °F 84.9 °F 71.1 °F 72% 29.92 in 10.0 mi South 8.1 mph - N/A   Clear
11:52 AM 84.0 °F 89.0 °F 71.1 °F 65% 29.90 in 10.0 mi SSW 8.1 mph - N/A   Clear
12:52 PM 84.9 °F 90.7 °F 72.0 °F 65% 29.90 in 10.0 mi SW 9.2 mph - N/A   Mostly Cloudy
1:52 PM 84.9 °F 90.7 °F 72.0 °F 65% 29.89 in 10.0 mi South 10.4 mph 17.3 mph N/A   Partly Cloudy
2:52 PM 86.0 °F 91.5 °F 71.1 °F 61% 29.88 in 10.0 mi SSW 6.9 mph - N/A   Partly Cloudy
4:52 PM 87.1 °F 92.8 °F 71.1 °F 59% 29.86 in 10.0 mi South 3.5 mph - N/A   Clear
5:52 PM 84.9 °F 90.7 °F 72.0 °F 65% 29.86 in 10.0 mi ESE 3.5 mph - N/A   Clear
6:52 PM 82.0 °F 87.4 °F 73.0 °F 74% 29.86 in 10.0 mi ESE 4.6 mph - N/A   Clear
7:52 PM 79.0 °F - 72.0 °F 79% 29.87 in 10.0 mi ESE 4.6 mph - N/A   Clear
8:52 PM 79.0 °F - 72.0 °F 79% 29.88 in 10.0 mi SE 6.9 mph - N/A   Clear
9:52 PM 78.1 °F - 71.1 °F 79% 29.90 in 10.0 mi SSE 4.6 mph - N/A   Clear
10:52 PM 75.9 °F - 69.1 °F 79% 29.90 in 10.0 mi SE 4.6 mph - N/A   Clear
11:52 PM 75.0 °F - 69.1 °F 82% 29.90 in 10.0 mi SE 3.5 mph - N/A   Mostly Cloudy